Location: Aiyede
(8.4833°N, 4.4500°E)
Time: 18:00:56
(UTC+00:00)

N. Korean satellite - Pass Details

Date: 01 December 2020
Orbit: 453 x 502 km, 97.2° (Epoch: 15 January)

Event Time Altitude Azimuth Distance (km) Brightness Sun altitude
Rises 04:18:19 0° 31° (NNE) 2,573 10.4 -20.0°
Reaches altitude 10° 04:20:40 10° 45° (NE) 1,696 9.6 -19.5°
Maximum altitude 04:23:39 24° 100° (E) 1,079 9.2 -18.8°
Drops below altitude 10° 04:26:39 10° 155° (SSE) 1,705 10.0 -18.1°
Sets 04:29:01 0° 169° (S) 2,589 10.7 -17.5°
